Date_and_time,latitude,longitude,wind_speed,RelWindDirFrom,WindDirFrom,air_pressure,air_temperature,relative_humidity,Temp,platform_speed_wrt_ground,air_pressure_at_mean_sea_level,platform_orientation
2019-06-24 23:50,50.6304483333333,-96.98076,5.3,5.9,108,972.33,22.4,78,21.58,0.0,997.65,270.0
2019-06-25 00:00,50.630445,-96.9807633333333,5.2,5.8,124,972.29,22.1,79,21.59,0.0,997.61,90.0
2019-06-25 00:10,50.6304516666667,-96.980775,4.8,5.5,122,972.26,22.0,82,21.53,0.0,997.60,90.0
2019-06-25 00:20,50.6304483333333,-96.9807716666667,6.0,6.9,140,972.20,21.3,81,21.48,0.0,997.56,90.0
2019-06-25 00:30,50.6304533333333,-96.9807733333333,6.2,7.7,141,972.23,21.6,73,21.46,0.0,997.58,90.0
2019-06-25 00:40,50.6304533333333,-96.9807716666667,4.4,6.1,132,972.25,22.5,64,21.51,0.0,997.57,90.0
2019-06-25 00:50,50.6304183333333,-96.980765,4.2,5.4,155,972.29,21.8,66,21.50,0.0,997.65,90.0
2019-06-25 01:00,50.6304533333333,-96.98077,4.4,5.4,161,972.34,21.8,64,21.38,0.0,997.69,345.5
2019-06-25 01:10,50.6304783333333,-96.98076,4.0,5.0,162,972.32,22.0,62,21.28,0.0,997.66,345.5
2019-06-25 01:20,50.6304666666667,-96.9807616666667,3.8,5.1,163,972.35,22.1,61,21.28,0.0,997.68,345.5
2019-06-25 01:30,50.6304666666667,-96.980765,3.9,4.8,181,972.41,22.1,65,21.44,0.0,997.74,345.5
2019-06-25 01:40,50.6304633333333,-96.9807666666667,4.5,5.6,181,972.45,22.1,62,21.45,0.0,997.79,345.5
2019-06-25 01:50,50.6304616666667,-96.980765,5.2,5.9,178,972.53,21.9,62,21.33,0.0,997.90,345.5
2019-06-25 02:00,50.6304633333333,-96.9807616666667,6.0,8.3,181,972.69,22.1,60,21.25,0.0,998.06,360.0
2019-06-25 02:10,50.6304533333333,-96.9807566666667,5.8,7.3,161,972.64,22.3,56,21.21,0.0,998.03,360.0
2019-06-25 02:20,50.63046,-96.98075,6.4,8.6,172,972.61,22.2,57,21.28,0.0,997.98,360.0
2019-06-25 02:30,50.630455,-96.9807583333333,5.5,8.0,186,972.66,22.0,58,21.30,0.0,998.01,360.0
2019-06-25 02:40,50.6304483333333,-96.9807566666667,6.1,8.8,179,972.68,21.6,59,21.34,0.0,998.07,360.0
2019-06-25 02:50,50.6304633333333,-96.980815,5.4,6.9,189,972.80,21.4,59,21.30,0.0,998.21,360.0
2019-06-25 03:00,50.6304533333333,-96.9807716666667,5.0,6.1,186,972.87,21.1,60,21.27,0.0,998.28,345.5
2019-06-25 03:10,50.6304533333333,-96.9807683333333,4.8,6.2,205,972.95,20.9,59,21.22,0.0,998.36,345.5
2019-06-25 03:20,50.6304516666667,-96.9807683333333,4.5,7.0,222,973.05,20.6,59,21.18,0.0,998.48,345.5
2019-06-25 03:30,50.6304516666667,-96.9807666666667,4.5,7.3,240,973.00,20.3,58,21.16,0.0,998.44,345.5
2019-06-25 03:40,50.6304533333333,-96.9807683333333,6.0,8.1,218,972.90,20.1,60,21.13,0.0,998.36,345.5
2019-06-25 03:50,50.6304533333333,-96.9807683333333,5.7,7.9,221,972.82,19.9,61,21.18,0.0,998.28,345.5
2019-06-25 04:00,50.6304516666667,-96.9807683333333,3.0,8.0,294,972.77,19.8,63,21.26,0.0,998.23,90.0
2019-06-25 04:10,50.6304333333333,-96.9807666666667,2.1,6.1,343,972.87,19.8,64,21.32,0.0,998.33,90.0
2019-06-25 04:20,50.630445,-96.9807683333333,2.1,4.7,74,972.94,20.4,61,21.33,0.0,998.39,90.0
2019-06-25 04:30,50.6304466666667,-96.9807716666667,1.8,2.7,111,972.93,20.7,57,21.36,0.0,998.38,90.0
2019-06-25 04:40,50.6304483333333,-96.9807733333333,1.9,2.4,153,972.92,20.4,58,21.17,0.0,998.38,90.0
2019-06-25 04:50,50.6304466666667,-96.9807716666667,2.5,3.3,176,972.91,20.3,65,21.23,0.0,998.40,90.0
2019-06-25 05:00,50.6304483333333,-96.9807716666667,4.7,6.7,166,973.03,19.7,64,21.36,0.0,998.56,183.2
2019-06-25 05:10,50.6304483333333,-96.9807683333333,6.2,8.0,176,973.05,19.6,67,21.35,0.0,998.59,183.2
2019-06-25 05:20,50.63045,-96.9807683333333,5.4,7.6,198,973.08,19.2,67,21.43,0.0,998.66,183.2
2019-06-25 05:30,50.6304483333333,-96.98077,4.9,6.2,206,973.06,19.2,66,21.44,0.0,998.65,183.2
2019-06-25 05:40,50.63045,-96.98077,4.3,6.0,216,973.06,18.9,67,21.46,0.0,998.67,183.2
2019-06-25 05:50,50.63045,-96.9807683333333,6.2,8.0,232,973.04,18.6,66,21.26,0.0,998.66,183.2
2019-06-25 06:00,50.6304383333333,-96.9807516666667,6.2,8.3,241,973.02,18.4,66,21.44,0.0,998.65,124.8
2019-06-25 06:10,50.630445,-96.9807566666667,5.8,7.5,245,973.07,18.5,66,21.54,0.0,998.67,124.8
2019-06-25 06:20,50.6304566666667,-96.98077,4.1,5.9,245,973.09,18.4,67,21.33,0.0,998.68,124.8
2019-06-25 06:30,50.6304533333333,-96.980765,4.1,5.9,249,973.12,18.0,69,21.39,0.0,998.75,124.8
2019-06-25 06:40,50.6304516666667,-96.9807666666667,3.9,6.0,244,973.14,17.6,71,21.34,0.0,998.79,124.8
2019-06-25 06:50,50.6304483333333,-96.980765,4.6,6.4,239,973.17,17.3,73,21.33,0.0,998.86,124.8
2019-06-25 07:00,50.630445,-96.9807633333333,4.4,6.7,247,973.09,17.2,73,21.07,0.0,998.78,360.0
2019-06-25 07:10,50.6304533333333,-96.9807716666667,3.6,5.4,263,973.10,17.1,75,21.15,0.0,998.82,360.0
2019-06-25 07:20,50.6304533333333,-96.9807716666667,4.7,6.1,256,973.04,16.8,76,21.12,0.0,998.77,360.0
2019-06-25 07:30,50.630455,-96.9807733333333,4.8,7.0,252,973.06,16.4,78,21.10,0.0,998.82,360.0
2019-06-25 07:40,50.6304533333333,-96.9807716666667,5.1,7.1,246,973.08,16.0,81,21.00,0.0,998.88,360.0
2019-06-25 07:50,50.6304533333333,-96.9807716666667,5.6,9.5,254,973.03,15.8,82,20.72,0.0,998.84,360.0
2019-06-25 08:00,50.6304283333333,-96.980785,5.3,8.8,275,973.02,16.2,80,20.65,0.0,998.80,194.5
2019-06-25 08:10,50.6304366666667,-96.9807683333333,6.2,9.3,279,973.06,16.2,80,20.95,0.0,998.85,194.5
2019-06-25 08:20,50.63044,-96.9807733333333,6.7,11.3,279,973.09,16.2,80,20.71,0.0,998.90,194.5
2019-06-25 08:30,50.63044,-96.980775,6.8,10.5,283,973.09,16.2,81,20.57,0.0,998.91,194.5
2019-06-25 08:40,50.6304416666667,-96.980775,6.3,10.1,283,973.15,16.2,81,20.81,0.0,999.00,194.5
2019-06-25 08:50,50.6304416666667,-96.9807766666667,7.3,10.9,292,973.14,16.2,80,20.65,0.0,998.99,194.5
2019-06-25 09:00,50.6304283333333,-96.9807883333333,7.5,11.8,292,973.11,16.4,79,20.49,0.0,998.95,236.6
2019-06-25 09:10,50.6304466666667,-96.9807866666667,6.7,10.1,297,973.11,16.4,79,20.58,0.0,998.97,236.6
2019-06-25 09:20,50.630445,-96.9807816666667,7.1,10.2,297,973.13,16.4,79,20.77,0.0,999.00,236.6
2019-06-25 09:30,50.630445,-96.9807733333333,5.2,9.1,279,973.25,16.2,80,20.82,0.0,999.16,236.6
2019-06-25 09:40,50.6304433333333,-96.9807733333333,5.2,9.1,273,973.32,15.6,84,20.57,0.0,999.27,236.6
2019-06-25 09:50,50.630445,-96.9807733333333,4.2,6.9,286,973.36,15.2,86,20.56,0.0,999.30,236.6
2019-06-25 10:00,50.630445,-96.9807733333333,2.9,4.8,308,973.42,15.2,87,20.59,0.0,999.37,270.0
2019-06-25 10:10,50.6304466666667,-96.9807733333333,2.5,4.2,261,973.55,15.1,88,20.41,0.0,999.50,270.0
2019-06-25 10:20,50.6304533333333,-96.98076,4.0,7.0,238,973.79,14.7,91,20.48,0.0,999.77,270.0
2019-06-25 10:30,50.6304483333333,-96.980765,3.0,5.8,257,973.87,14.4,91,20.39,0.0,999.87,270.0
2019-06-25 10:40,50.630445,-96.9807616666667,2.5,4.2,273,973.93,14.4,91,20.39,0.0,999.92,270.0
2019-06-25 10:50,50.630445,-96.9807616666667,2.4,4.3,267,973.94,14.5,90,20.49,0.0,999.93,270.0
2019-06-25 11:00,50.6304166666667,-96.9807316666667,3.0,4.9,250,974.17,14.6,90,20.47,0.0,1000.15,107.3
2019-06-25 11:10,50.6304366666667,-96.9808016666667,4.2,6.6,273,974.21,14.8,88,20.23,0.0,1000.19,107.3
2019-06-25 11:20,50.6304466666667,-96.9807583333333,5.4,8.2,280,974.18,15.1,85,20.10,0.0,1000.15,107.3
2019-06-25 11:30,50.6304483333333,-96.98077,6.1,8.5,273,974.26,15.3,84,20.03,0.0,1000.26,107.3
2019-06-25 11:40,50.6304466666667,-96.9807666666667,5.5,8.1,269,974.32,15.5,83,20.11,0.0,1000.32,107.3
2019-06-25 11:50,50.6304483333333,-96.9807716666667,5.0,7.0,269,974.32,16.1,80,20.09,0.0,1000.30,107.3
2019-06-25 12:00,50.63045,-96.9807716666667,4.4,7.0,272,974.38,16.5,78,20.29,0.0,1000.34,8.4
2019-06-25 12:10,50.63045,-96.98077,4.8,7.3,264,974.52,16.9,76,20.48,0.0,1000.49,8.4
2019-06-25 12:20,50.6304216666667,-96.9807566666667,4.8,7.2,269,974.50,16.7,77,20.48,0.0,1000.48,8.4
2019-06-25 12:30,50.6304533333333,-96.9807983333333,4.8,6.6,277,974.50,16.6,78,20.48,0.0,1000.49,8.4
2019-06-25 12:40,50.630455,-96.980785,5.2,8.8,290,974.51,16.6,78,20.48,0.0,1000.50,8.4
2019-06-25 12:50,50.63045,-96.9807833333333,5.5,8.0,294,974.51,16.7,78,20.45,0.0,1000.49,8.4
2019-06-25 13:00,50.6304533333333,-96.98078,5.2,8.3,279,974.58,16.8,79,20.19,0.0,1000.55,323.4
2019-06-25 13:10,50.6304533333333,-96.98078,5.4,7.9,288,974.59,16.9,80,20.17,0.0,1000.54,323.4
2019-06-25 13:20,50.630455,-96.9807766666667,5.2,7.4,273,974.71,17.4,79,20.30,0.0,1000.63,323.4
2019-06-25 13:30,50.6304516666667,-96.980775,5.6,9.4,277,974.76,18.0,77,20.29,0.0,1000.64,323.4
2019-06-25 13:40,50.63045,-96.9807483333333,6.2,9.0,288,974.85,18.7,74,20.23,0.0,1000.68,323.4
2019-06-25 13:50,50.6304416666667,-96.9807666666667,5.6,9.2,286,974.91,19.2,72,20.28,0.0,1000.70,323.4
2019-06-25 14:00,50.630435,-96.9807466666667,6.1,11.2,283,975.01,19.4,69,20.41,0.0,1000.78,345.5
2019-06-25 14:10,50.630435,-96.9807566666667,5.4,9.9,285,975.05,19.6,68,20.43,0.0,1000.82,345.5
2019-06-25 14:20,50.6304383333333,-96.980755,4.4,8.2,290,975.05,20.0,67,20.36,0.0,1000.81,345.5
2019-06-25 14:30,50.63044,-96.9807583333333,4.5,7.8,287,975.11,20.4,66,20.30,0.0,1000.85,345.5
2019-06-25 14:40,50.63044,-96.9807633333333,4.9,8.4,303,975.14,20.6,63,20.39,0.0,1000.86,345.5
2019-06-25 14:50,50.6304733333333,-96.9807683333333,5.6,8.3,292,975.11,20.8,62,20.43,0.0,1000.82,345.5
2019-06-25 15:00,50.6304516666667,-96.9807783333333,4.1,7.9,296,975.18,21.0,60,20.44,0.0,1000.88,270.0
2019-06-25 15:10,50.6304366666667,-96.98077,3.3,6.7,321,975.27,21.5,56,20.41,0.0,1000.93,270.0
2019-06-25 15:20,50.6304433333333,-96.9807666666667,4.1,8.4,300,975.34,21.8,52,20.28,0.0,1000.96,270.0
2019-06-25 15:30,50.6304433333333,-96.9807633333333,4.4,8.3,291,975.44,22.0,52,20.34,0.0,1001.03,270.0
2019-06-25 15:40,50.6304433333333,-96.9807616666667,1.6,6.9,293,975.52,22.3,54,20.29,0.0,1001.08,270.0
2019-06-25 15:50,50.6304433333333,-96.9807616666667,4.1,5.7,78,975.61,22.5,61,20.25,0.0,1001.15,270.0
2019-06-25 16:00,50.630445,-96.9807616666667,5.2,7.2,92,975.66,22.3,61,20.00,0.0,1001.20,122.3
2019-06-25 16:10,50.630445,-96.9807616666667,6.8,10.2,77,975.66,22.3,64,19.81,0.0,1001.18,122.3
2019-06-25 16:20,50.630445,-96.9807616666667,6.6,8.0,76,975.68,21.6,68,19.71,0.0,1001.22,122.3
2019-06-25 16:30,50.630405,-96.9807466666667,6.0,7.3,85,975.61,21.8,66,19.68,0.0,1001.13,122.3
2019-06-25 16:40,50.6304366666667,-96.9807583333333,6.2,8.1,80,975.61,21.9,68,19.58,0.0,1001.11,122.3
2019-06-25 16:50,50.63044,-96.980765,5.5,6.6,95,975.64,21.6,70,19.54,0.0,1001.15,122.3
2019-06-25 17:00,50.6304416666667,-96.98076,6.2,7.7,98,975.67,21.8,68,19.56,0.0,1001.14,299.2
2019-06-25 17:10,50.6304416666667,-96.9807616666667,5.9,7.2,99,975.74,21.6,70,19.57,0.0,1001.21,299.2
2019-06-25 17:20,50.6304416666667,-96.9807633333333,8.1,9.8,91,975.69,21.9,67,19.58,0.0,1001.14,299.2
2019-06-25 17:30,50.6304433333333,-96.980765,6.4,8.4,91,975.79,21.6,68,19.61,0.0,1001.24,299.2
2019-06-25 17:40,50.630455,-96.9807783333333,7.9,9.4,105,975.78,21.3,69,19.64,0.0,1001.24,299.2
2019-06-25 17:50,50.6304383333333,-96.9808116666667,6.4,9.1,121,975.84,20.9,70,19.70,0.0,1001.32,299.2
2019-06-25 18:00,50.6304566666667,-96.9807883333333,2.8,8.9,173,975.90,21.4,60,19.85,0.0,1001.37,270.0
2019-06-25 18:10,50.6304533333333,-96.980765,4.7,11.5,322,975.88,22.4,55,19.94,0.0,1001.33,270.0
2019-06-25 18:20,50.6304533333333,-96.9807733333333,5.6,9.6,283,975.82,23.1,46,19.92,0.0,1001.23,270.0
2019-06-25 18:30,50.63045,-96.9807666666667,7.1,12.6,261,975.79,23.9,41,19.88,0.0,1001.17,270.0
2019-06-25 18:40,50.6304483333333,-96.9807666666667,7.9,13.9,255,975.83,23.7,42,19.90,0.0,1001.23,270.0
2019-06-25 18:50,50.6304483333333,-96.9807716666667,7.2,11.5,257,975.88,23.7,43,20.06,0.0,1001.27,270.0
2019-06-25 19:00,50.6304483333333,-96.980765,6.0,10.4,265,975.92,24.1,41,20.20,0.0,1001.30,347.4
2019-06-25 19:10,50.6304483333333,-96.980765,6.7,12.8,265,975.86,24.5,41,20.17,0.0,1001.21,347.4
2019-06-25 19:20,50.63045,-96.9807716666667,7.2,12.7,272,975.82,24.1,41,20.31,0.0,1001.19,347.4
2019-06-25 19:30,50.6304483333333,-96.98077,7.0,13.4,270,975.81,24.1,41,20.89,0.0,1001.20,347.4
2019-06-25 19:40,50.6304433333333,-96.9807833333333,10.6,19.5,255,976.10,23.5,47,20.66,0.0,1001.54,347.4
2019-06-25 19:50,50.630445,-96.9807616666667,6.7,14.4,282,976.52,22.0,56,20.85,0.0,1002.01,347.4
2019-06-25 20:00,50.6304416666667,-96.9807633333333,6.9,14.1,261,976.51,21.7,56,20.82,0.0,1001.97,270.0
2019-06-25 20:10,50.6304433333333,-96.9807666666667,11.4,22.6,274,976.75,21.2,60,20.77,0.0,1002.21,270.0
2019-06-25 20:20,50.6304433333333,-96.9807666666667,6.2,13.8,314,976.99,19.6,66,20.87,0.0,1002.50,270.0
2019-06-25 20:30,50.6304533333333,-96.9807666666667,8.4,15.6,258,977.14,19.5,61,20.97,0.0,1002.66,270.0
2019-06-25 20:40,50.630455,-96.9807683333333,8.1,14.8,272,977.05,19.5,63,20.80,0.0,1002.56,270.0
2019-06-25 20:50,50.63045,-96.98077,7.4,11.7,269,976.97,19.4,66,20.66,0.0,1002.47,270.0
2019-06-25 21:00,50.6304533333333,-96.9807733333333,7.6,13.1,297,976.97,19.7,66,20.44,0.0,1002.44,90.0
2019-06-25 21:10,50.6304483333333,-96.9807766666667,6.9,12.5,309,976.97,20.0,67,20.44,0.0,1002.45,90.0
2019-06-25 21:20,50.6304166666667,-96.9807783333333,5.2,8.6,320,977.06,20.5,66,20.53,0.0,1002.51,90.0
2019-06-25 21:30,50.630445,-96.9807833333333,6.2,11.2,307,977.07,21.2,60,20.79,0.0,1002.52,90.0
2019-06-25 21:40,50.6304483333333,-96.980775,5.9,14.5,322,977.14,21.9,57,20.69,0.0,1002.63,90.0
2019-06-25 21:50,50.6304616666667,-96.9807133333333,7.2,12.6,316,977.06,22.2,54,20.61,0.0,1002.54,90.0
2019-06-25 22:00,50.6304516666667,-96.980785,6.4,14.6,298,977.14,22.7,49,20.50,0.0,1002.63,293.6
2019-06-25 22:10,50.6304416666667,-96.9807783333333,7.4,11.7,317,977.30,23.2,45,20.53,0.0,1002.84,293.6
2019-06-25 22:20,50.63044,-96.98075,6.0,11.4,307,977.44,23.4,46,21.25,0.0,1002.98,293.6
2019-06-25 22:30,50.6304433333333,-96.98076,6.8,11.8,273,977.41,23.6,43,20.78,0.0,1002.94,293.6
2019-06-25 22:40,50.6304416666667,-96.9807666666667,7.0,13.0,285,977.39,23.9,42,20.62,0.0,1002.91,293.6
2019-06-25 22:50,50.6304433333333,-96.98077,8.2,14.2,324,977.47,23.9,44,20.64,0.0,1002.98,293.6
2019-06-25 23:00,50.6304516666667,-96.9807516666667,8.6,14.4,290,977.61,23.5,42,21.22,0.0,1003.13,12.6
2019-06-25 23:10,50.6304416666667,-96.9807716666667,6.0,10.2,289,977.69,23.2,44,21.34,0.0,1003.21,12.6
2019-06-25 23:20,50.630445,-96.9807616666667,5.5,8.6,294,977.76,23.1,44,21.11,0.0,1003.24,12.6
